Accueil
METAR-TAF:

METAR-TAF

Aéroports :

Aéroport d'Angers-Loire

Angers, France

latitude: 47-33-37N, longitude: 000-18-44W, altitude: 59 m

Observation

Le bulletin a été fait il y a 33 minutes, à 04:00 UTC
Vent 8 kt de sud-ouest
Température 16°C
Humidité 88%
Pression 1007 hPa
Visibilité 10 km ou plus
Nuages fragmentés à une hauteur de 1700 ft
Nuages fragmentés à une hauteur de 2600 ft
Nuages fragmentés à une hauteur de 3600 ft

METAR: LFJR 060400Z AUTO 23008KT 9999 BKN017 BKN026 BKN036 16/14 Q1007

Heure: 06:33 (04:33 UTC)


TAF: absent

Observations et prévisions météorologiques de plus de 4000 aéroports (messages METAR et TAF).

Les stations disponibles sont représentées par des disques jaunes et rouges sur la carte.

Passer la souris dessus pour voir le nom de la station.

Cliquer dessus pour voir les observations et prévisions météorologiques.

Pour changer de carte: cliquez sur les boutons verts avec une croix noire pour zoomer, sur le bouton vert avec un tiret pour effectuer un zoom arrière, ou sur les flèches vertes pour les cartes adjacentes.


METAR-TAF: